Flag for U.S.A. Weather past 2 weeks in Tampa, Florida, U.S.A.

Now
66 °F

Overcast.


Feels Like: 66 °F
Forecast: 58 / 76 °F
Wind: 12 mph from North

Location: Tampa International Airport

Current Time: Mar 6, 2015 at 5:34:42 PM

Latest Report: Mar 6, 2015 at 4:53 PM


Visibility: 10 mi

Pressure: 30.20 "Hg

Humidity: 78%

Dew point: 59 °F

Location of TampaLocation

Historic Weather in Tampa — Graph

°F

Tampa temperature yesterday

Maximum temperature yesterday: 79 °F (at 12:53 PM)
Minimum temperature yesterday: 68 °F (at 4:53 AM)
Average temperature yesterday: 73 °F

Past Weeks' High & Low Weather Summary

 TemperatureHumidityPressure
High84 °F (Mar 3, 3:53 PM)100% (Feb 25, 11:53 PM)30.45 "Hg (Feb 25, 11:53 PM)
Low34 °F (Feb 20, 6:53 AM)19% (Feb 20, 2:53 PM)29.70 "Hg (Feb 26, 2:53 AM)
Average65 °F76%30.16 "Hg
* Reported Feb 19 3:53 PM — Mar 6 3:53 PM, Tampa, Weather by CustomWeather, © 2015

Note: Actual official high and low records may vary slightly from our data, if they occured in-between our weather recording intervals... More about our weather records

Advertising

Tampa weather history for previous 24 hours

 ConditionsComfort  
Time TempWeatherWind HumidityBarometerVisibility
3:53 PM
Fri, Mar 6
68 °FOvercast.9 mph82%30.19 "Hg10 mi
2:53 PM68 °FDrizzle. Mostly cloudy.7 mph82%30.18 "Hg2 mi
1:53 PM68 °FLow clouds.10 mph84%30.20 "Hg7 mi
12:53 PM71 °FFog.5 mph90%30.21 "Hg3 mi
11:53 AM70 °FFog.7 mph93%30.22 "Hg3 mi
10:53 AM71 °FLow clouds.No wind90%30.22 "Hg9 mi
9:53 AM72 °FLow clouds.3 mph84%30.21 "Hg7 mi
8:53 AM72 °FLow clouds.3 mph87%30.19 "Hg7 mi
7:53 AM70 °FFog.3 mph90%30.18 "Hg1 mi
6:58 AM69 °FFog.3 mph90%30.17 "Hg1 mi
5:53 AM68 °FFog.6 mph93%30.15 "Hg1 mi
4:53 AM70 °FFog.8 mph93%30.13 "Hg1 mi
3:53 AM70 °FMostly cloudy.5 mph93%30.12 "Hg8 mi
2:53 AM70 °FFog.3 mph93%30.12 "Hg3 mi
1:53 AM70 °FLow clouds.6 mph93%30.13 "Hg8 mi
12:53 AM70 °FLow clouds.5 mph93%30.14 "Hg7 mi
11:53 PM
Thu, Mar 5
72 °FLow clouds.8 mph91%30.15 "Hg8 mi
10:53 PM71 °FClear.3 mph93%30.16 "Hg7 mi
9:53 PM71 °FClear.3 mph93%30.16 "Hg8 mi
8:53 PM73 °FClear.3 mph88%30.14 "Hg10 mi
7:53 PM73 °FClear.6 mph88%30.12 "Hg10 mi
6:53 PM74 °FPassing clouds.8 mph85%30.11 "Hg10 mi
5:53 PM76 °FPassing clouds.10 mph80%30.10 "Hg10 mi
Weather by CustomWeather, © 2015

See weather overviewHow to use our weather pages